SCP
0 0 0 0 0 0 0 0 0 0 0 0 0 0 0 0 0 0 0 0 0 0 0 0 0 0 0 0 0 0 0 0 0 0 -0 -0 -0 -0 -0 0 0 0 0 0
0 0 0 0 0 0 0 0 0 0 0 0 0 0 0 0 0 0 0 0 0 0 0 0 0 0 0 -0 -0 -0 0 0 0 -0 -0 -0 -0 0 0 0 0 0 0 0
0 0 0 0 0 0 0 0 0 0 0 0 0 0 0 0 0 0 0 0 0 0 0 0 -0 0 -0 -0 -0 0 0 0 -0 -0 -0 -0 0 0 0 0 0 0 0 0
0 0 0 0 0 0 0 0 0 0 0 0 0 0 0 0 0 0 0 0 0 0 0 0 0 0 -0 -0 0 0 0 -0 -0 -0 -0 0 0 0 0 0 0 0 0 0
0 0 0 0 0 0 0 0 0 0 0 0 0 0 0 0 0 0 0 0 0 0 0 0 -0 -0 -0 -0 0 -0 -0 -0 0 0 0 0 0 0 0 0 0 0 0 0
0 0 0 0 0 0 0 0 0 0 0 0 0 -0 -0 0 0 0 0 0 0 -0 -0 0 -0 -0 -0 -0 -0 -0 -0 0 0 0 0 0 0 0 0 0 0 0 0 0
0 0 0 0 0 0 0 0 -0 0 0 0 0 0 0 0 0 0 0 -0 -0 0 0 0 0 -0 -0 -0 0 0 0 0 0 0 0 0 0 0 0 0 0 0 0 0
0 0 0 0 0 0 0 0 0 0 0 0 0 0 0 0 0 0 0 -0 0 -0 0 0 0 0 -0 -0 0 0 0 0 0 0 0 0 0 0 0 0 0 0 0 0
0 0 0 0 0 0 0 0 0 0 0 0 0 0 0 0 0 0 0 0 0 0 -0 -0 -0 -0 -0 -0 -0 0 0 0 0 0 0 0 0 0 0 0 0 0 0 0
0 0 0 0 0 0 0 0 0 0 0 0 0 0 0 0 0 0 0 0 0 0 0 -0 0 0 -0 -0 -0 -0 0 0 0 0 0 0 0 0 0 0 0 0 0 0
0 0 0 0 0 0 0 0 0 0 0 0 0 0 0 0 0 0 0 0 0 0 0 0 0 0 0 0 -0 -0 0 0 0 0 0 0 0 0 0 0 0 0 0 0
0 0 0 0 0 0 0 0 0 0 0 0 0 0 -0 0 0 0 0 0 0 0 0 0 0 0 0 0 0 0 0 0 0 0 0 0 0 0 -0 0 0 0 0 0
0 0 0 0 0 0 0 0 0 0 0 0 0 0 0 0 0 0 0 0 0 0 0 -0 -0 0 0 0 0 0 0 0 0 0 0 0 0 0 0 0 0 0 0 0
0 0 0 0 0 0 0 0 0 0 0 0 0 0 0 0 0 0 0 0 0 0 0 0 0 0 0 0 0 0 0 0 0 0 0 0 0 0 0 0 0 0 0 0
0 0 0 0 0 0 0 0 0 0 0 0 0 0 0 0 0 -0 0 0 0 0 0 0 -0 0 -0 0 0 0 0 0 0 0 0 0 0 0 0 0 0 0 0 0
0 0 0 0 0 0 0 0 0 -0 0 0 0 -0 -0 -0 -0 -0 0 0 0 0 0 0 0 0 0 0 0 0 0 0 0 0 0 0 0 0 0 0 0 0 0 -0
0 0 0 0 0 0 0 0 0 -0 0 -0 -0 -0 -0 -0 -0 -0 0 0 0 0 0 0 0 0 0 0 0 0 0 0 0 0 0 0 0 0 0 0 0 0 -0 0
0 0 0 0 0 0 0 0 -0 0 -0 0 -0 -0 -0 -0 -0 -0 0 0 0 0 0 0 0 0 0 0 0 0 0 0 0 0 0 -0 0 0 -0 0 -0 -0 0 0
0 0 0 0 0 0 0 -0 -0 0 -0 0 -0 -0 -0 -0 -0 -0 0 0 0 0 0 0 0 0 0 0 0 0 0 0 0 -0 0 0 0 0 0 0 0 0 0 0
0 0 0 0 0 0 -0 0 0 0 -0 -0 -0 -0 -0 -0 -0 0 0 0 0 0 0 0 0 0 0 0 0 0 0 0 0 0 0 -0 0 0 0 0 0 0 0 0
0 -0 0 0 0 0 0 -0 0 -0 0 0 -0 -0 -0 -0 -0 0 0 0 0 0 0 0 0 0 0 0 0 0 0 0 0 0 0 0 0 0 0 0 0 0 0 0
0 0 0 0 0 0 -0 -0 0 -0 -0 0 -0 0 0 -0 -0 0 0 0 0 0 0 0 0 0 0 0 0 0 0 0 0 0 0 0 0 0 0 0 0 0 0 0
0 0 0 0 0 0 -0 -0 -0 -0 -0 0 0 0 0 0 0 0 0 0 0 0 0 0 0 0 0 0 0 0 0 0 0 0 0 0 0 0 0 0 0 0 0 0
0 0 0 0 0 0 -0 -0 -0 0 -0 0 0 0 0 0 0 0 0 0 0 0 0 0 0 0 0 0 0 0 0 0 0 0 0 0 0 0 0 0 0 0 0 0
0 0 0 0 0 -0 -0 -0 0 -0 0 0 0 0 0 0 0 0 0 0 0 0 0 0 0 0 0 0 0 0 0 0 0 0 0 0 0 0 0 0 0 0 0 0
0 0 0 0 0 -0 -0 -0 -0 -0 0 0 0 0 0 0 0 0 0 0 0 0 0 0 0 0 0 0 0 0 0 0 0 0 -0 0 -0 -0 -0 0 -0 0 0 0
0 0 0 -0 0 -0 -0 0 -0 -0 0 0 0 0 0 0 0 0 0 0 0 0 0 0 0 0 0 0 0 0 0 0 0 0 -0 0 -0 -0 -0 -0 -0 0 0 0
Wind_Speed_500mb
34 42 47 49 50 48 37 40 30 34 37 39 40 43 54 52 59 65 68 69 70 71 61 59 59 58 54 56 54 56 58 61 66 73 74 73 71 72 59 57 55 57 62 66
43 46 42 45 46 33 28 24 21 32 38 41 56 58 54 62 67 71 71 76 77 72 65 70 72 77 76 68 69 67 69 71 73 69 69 68 68 62 53 51 50 54 66 66
39 43 43 38 20 32 29 34 30 30 38 44 41 49 54 56 72 75 74 77 77 77 80 81 75 70 72 77 83 78 77 74 67 64 64 69 63 55 50 51 47 58 60 54
27 37 27 14 25 22 19 29 33 28 30 41 49 64 68 69 68 67 72 75 78 79 75 70 72 71 70 71 69 66 66 65 66 64 68 62 54 45 53 46 48 52 41 40
17 22 34 18 11 15 21 32 15 25 40 59 66 70 64 52 63 75 79 74 76 76 80 83 79 70 71 66 63 57 64 65 64 60 60 56 45 47 43 41 33 30 35 32
23 34 26 19 34 32 39 20 30 56 47 49 60 29 35 82 82 78 70 74 76 90 82 77 74 68 64 67 65 76 63 56 58 54 55 48 39 39 29 29 30 28 29 23
25 30 14 13 41 37 15 20 60 55 59 60 37 59 80 84 83 75 81 85 80 72 72 71 74 68 70 69 68 63 59 48 43 49 42 32 29 29 35 18 19 17 16 18
14 23 13 59 38 11 22 52 58 60 65 64 72 70 78 85 84 84 81 79 69 81 80 73 66 64 69 68 61 56 43 40 39 26 25 22 27 36 22 18 9 7 10 11
12 14 41 44 38 48 49 55 61 66 66 71 65 77 72 83 82 80 75 82 83 80 81 73 63 56 61 57 48 36 31 27 19 19 17 22 28 14 15 8 4 11 15 20
23 18 33 43 51 56 60 63 64 60 69 62 66 73 78 80 82 82 84 83 81 79 78 71 56 50 44 38 31 25 20 15 16 15 10 17 17 11 11 8 12 17 23 25
22 31 53 37 55 61 64 63 59 63 58 60 72 73 76 81 83 87 88 88 83 75 64 59 53 44 34 30 24 24 21 23 18 12 19 19 9 15 7 9 15 18 20 24
16 40 34 50 56 58 55 65 60 56 63 73 71 75 77 80 85 87 89 85 71 65 66 56 45 37 26 20 23 24 25 21 16 17 16 11 6 14 15 13 21 18 18 16
25 39 45 52 54 55 60 59 54 56 69 69 73 71 76 81 84 85 82 69 67 67 58 33 30 30 21 17 18 23 26 23 15 17 19 9 13 15 22 24 25 20 20 16
31 39 48 49 47 55 58 63 60 59 75 64 70 72 76 80 84 81 69 62 57 42 43 41 23 22 8 2 15 25 27 17 30 22 15 15 16 20 25 36 38 37 24 20
37 40 47 49 54 56 60 57 66 63 71 71 68 72 77 80 79 69 60 51 44 38 35 29 25 14 5 13 11 18 19 24 24 24 19 19 23 26 34 38 38 40 41 40
40 46 51 54 52 59 54 61 60 66 69 67 68 72 74 71 64 59 53 41 46 44 34 28 25 18 11 15 17 18 17 20 19 21 25 24 29 37 39 41 49 54 60 76
41 47 53 43 50 49 45 58 57 63 63 62 65 69 67 61 57 55 49 36 36 37 38 37 39 28 14 14 19 20 20 21 25 26 25 30 35 44 51 60 73 81 83 85
37 45 35 42 52 44 46 59 55 60 58 59 61 66 60 54 54 52 43 42 39 41 40 31 18 18 18 17 18 20 23 24 26 31 36 39 44 52 63 77 81 91 83 70
43 46 41 38 42 41 49 50 56 60 57 53 58 58 51 47 45 42 38 48 51 50 39 33 32 30 28 23 24 24 28 31 34 41 43 48 51 61 75 80 86 83 77 70
43 48 37 38 41 45 57 56 48 58 52 48 51 48 47 44 39 35 34 41 40 41 34 30 34 34 30 25 27 38 40 40 48 61 53 46 47 61 71 76 80 76 77 66
41 49 38 40 36 38 47 45 44 52 48 48 40 42 40 38 31 31 35 38 37 32 28 24 28 27 26 23 25 32 43 53 65 60 56 52 49 59 71 78 79 73 77 69
41 49 37 33 30 33 48 41 47 49 42 45 33 35 36 34 27 24 31 31 31 28 25 27 29 27 27 23 30 32 36 47 61 53 49 43 46 64 76 79 77 69 67 52
47 48 35 28 29 29 47 43 45 41 41 34 31 30 32 26 27 27 25 28 27 26 22 27 27 26 28 28 29 29 37 43 52 47 47 45 47 69 76 79 79 62 56 55
46 45 34 22 23 34 45 44 38 36 38 34 28 24 24 24 20 19 20 19 20 20 23 24 23 24 25 27 28 31 32 40 40 42 48 54 61 61 68 74 77 62 57 64
39 38 25 21 19 32 38 39 39 37 42 34 28 23 23 20 20 19 16 15 16 19 22 22 21 22 23 23 24 26 30 32 33 33 34 36 47 57 56 69 79 72 69 64
44 20 18 19 12 27 47 34 36 38 37 27 25 20 21 20 18 16 17 15 17 21 23 21 21 20 21 22 26 30 34 34 32 32 30 33 38 47 46 58 74 71 66 67
8 17 9 14 11 26 47 32 34 37 33 28 23 22 19 18 20 21 21 21 23 24 24 24 22 22 23 24 27 33 35 38 40 42 42 33 30 37 45 55 63 71 68 53
Wind_Direction_500mb
296 301 294 301 307 310 337 323 325 329 321 334 349 340 334 337 335 329 320 317 315 314 317 316 315 320 317 310 308 299 293 291 289 291 291 290 290 289 284 280 274 282 276 264
296 295 309 303 310 341 330 311 300 337 321 357 340 337 335 335 330 320 314 313 308 312 317 315 310 309 309 306 304 301 296 293 290 289 291 292 294 291 285 279 277 280 279 271
296 303 308 304 346 321 333 340 354 326 339 352 336 325 323 327 322 312 312 314 315 314 310 308 306 302 300 298 299 294 291 292 290 289 286 294 291 287 288 279 282 280 283 271
301 306 300 40 30 4 332 321 322 355 346 316 317 323 321 319 313 316 311 309 308 307 306 306 305 302 300 295 291 287 287 287 288 287 289 288 285 283 284 285 289 288 282 268
292 304 293 2 16 334 332 309 30 335 333 325 322 315 311 321 323 311 307 305 305 304 303 302 300 299 297 292 288 287 288 284 281 282 284 279 273 286 281 294 281 281 276 272
281 284 306 5 352 332 306 292 348 333 325 322 321 310 316 326 323 319 313 308 307 304 303 302 300 299 294 292 288 288 288 285 283 281 273 268 270 272 281 268 279 279 263 272
312 308 295 36 345 352 359 311 319 320 317 321 315 314 312 321 318 314 310 306 307 304 303 299 299 297 293 291 288 288 290 287 275 269 266 268 270 278 289 287 287 282 253 233
313 304 308 348 356 357 303 309 317 321 322 314 317 318 319 319 316 316 311 310 308 307 306 305 302 298 295 292 290 291 285 275 270 254 264 264 265 293 269 278 282 248 199 195
291 282 304 335 333 331 326 320 318 317 316 324 323 322 321 318 318 316 314 310 313 311 308 308 304 296 292 290 293 290 278 271 248 274 274 271 279 223 258 241 217 186 179 180
317 318 329 331 326 324 319 316 315 320 328 331 324 324 321 320 317 316 319 317 317 315 313 313 314 310 301 298 289 271 266 251 262 268 263 281 193 225 232 181 164 171 173 178
304 328 328 326 324 317 316 321 329 332 337 333 328 324 322 318 318 320 321 322 321 317 316 315 320 314 308 305 283 248 241 246 227 269 288 189 197 193 212 156 174 185 181 192
307 327 324 318 321 313 326 332 331 338 338 332 331 327 326 321 325 324 323 326 328 328 325 322 323 316 294 295 261 235 223 228 225 228 237 232 234 187 168 157 164 162 182 193
322 323 332 321 329 333 332 332 336 337 337 330 332 333 332 329 329 330 330 334 336 334 338 324 325 325 304 285 248 217 201 192 195 206 203 223 198 181 158 144 136 137 139 150
321 327 320 326 330 346 339 336 332 330 337 333 336 338 337 332 332 336 339 345 347 351 352 350 312 318 315 263 184 188 173 168 182 186 189 207 190 172 159 151 141 134 136 142
325 322 319 334 341 339 335 342 337 335 338 338 340 340 340 336 337 343 352 359 3 3 356 355 15 7 97 153 142 145 171 187 187 199 190 190 174 168 160 153 146 134 135 140
328 325 335 338 341 336 340 342 339 336 336 338 341 341 341 338 343 352 1 6 13 15 11 13 20 21 62 137 162 174 171 186 188 175 172 169 166 159 153 138 130 132 140 143
327 335 341 348 338 334 342 345 341 339 340 343 341 340 341 344 348 2 12 28 35 24 25 38 44 52 62 98 140 147 154 158 164 166 159 161 152 144 138 132 133 131 130 135
332 337 342 341 338 336 340 342 339 342 341 342 341 343 343 349 349 359 11 32 38 44 40 35 34 38 59 104 134 144 143 150 157 153 150 147 144 141 134 130 133 137 133 130
331 332 341 348 347 339 340 333 337 336 340 341 342 345 346 351 350 2 18 31 33 37 39 41 44 49 66 90 110 125 132 138 143 144 136 139 143 141 136 136 137 137 138 135
331 330 338 348 345 343 339 330 339 336 345 349 340 349 352 354 354 7 27 36 31 29 32 37 45 54 65 88 105 121 123 134 130 128 126 131 140 145 141 140 139 138 140 131
336 332 350 350 348 339 342 339 341 342 347 341 352 354 353 359 359 10 22 29 32 29 31 43 52 56 68 96 123 124 127 133 138 134 137 136 137 149 148 145 142 142 134 127
333 333 343 346 342 340 346 351 340 345 343 346 353 354 360 7 14 22 23 22 27 31 46 53 54 60 76 100 107 126 134 137 145 145 141 136 141 151 151 150 144 137 143 125
326 327 337 339 342 349 350 353 345 352 352 359 359 360 0 9 13 20 24 27 30 37 54 60 57 64 80 101 110 116 127 136 144 148 144 137 141 151 151 158 155 138 144 138
318 323 329 339 340 348 357 358 354 360 359 5 1 360 -0 16 24 25 22 25 38 48 61 66 68 79 88 104 115 123 135 144 149 149 150 147 140 150 158 159 155 145 142 141
316 316 335 346 354 356 359 358 352 349 359 357 3 8 15 25 31 27 32 37 46 61 69 72 79 86 92 106 119 126 131 145 149 152 155 158 157 156 157 166 162 155 147 144
298 321 331 346 324 3 1 353 356 354 348 4 8 22 28 39 45 44 54 67 77 76 73 73 79 88 95 105 116 129 138 140 141 139 144 145 152 163 164 166 167 160 154 151
292 337 349 20 7 356 7 3 8 18 26 22 20 31 38 52 56 61 68 78 84 86 85 85 86 92 99 107 116 126 138 138 129 120 115 115 127 148 154 160 168 162 153 146
Wind_Speed_850mb
34 42 47 49 50 48 37 40 30 34 37 39 40 43 54 52 59 65 68 69 70 71 61 59 59 58 54 56 54 56 58 61 66 73 74 73 71 72 59 57 55 57 62 66
43 46 42 45 46 33 28 24 21 32 38 41 56 58 54 62 67 71 71 76 77 72 65 70 72 77 76 68 69 67 69 71 73 69 69 68 68 62 53 51 50 54 66 66
39 43 43 38 20 32 29 34 30 30 38 44 41 49 54 56 72 75 74 77 77 77 80 81 75 70 72 77 83 78 77 74 67 64 64 69 63 55 50 51 47 58 60 54
27 37 27 14 25 22 19 29 33 28 30 41 49 64 68 69 68 67 72 75 78 79 75 70 72 71 70 71 69 66 66 65 66 64 68 62 54 45 53 46 48 52 41 40
17 22 34 18 11 15 21 32 15 25 40 59 66 70 64 52 63 75 79 74 76 76 80 83 79 70 71 66 63 57 64 65 64 60 60 56 45 47 43 41 33 30 35 32
23 34 26 19 34 32 39 20 30 56 47 49 60 29 35 82 82 78 70 74 76 90 82 77 74 68 64 67 65 76 63 56 58 54 55 48 39 39 29 29 30 28 29 23
25 30 14 13 41 37 15 20 60 55 59 60 37 59 80 84 83 75 81 85 80 72 72 71 74 68 70 69 68 63 59 48 43 49 42 32 29 29 35 18 19 17 16 18
14 23 13 59 38 11 22 52 58 60 65 64 72 70 78 85 84 84 81 79 69 81 80 73 66 64 69 68 61 56 43 40 39 26 25 22 27 36 22 18 9 7 10 11
12 14 41 44 38 48 49 55 61 66 66 71 65 77 72 83 82 80 75 82 83 80 81 73 63 56 61 57 48 36 31 27 19 19 17 22 28 14 15 8 4 11 15 20
23 18 33 43 51 56 60 63 64 60 69 62 66 73 78 80 82 82 84 83 81 79 78 71 56 50 44 38 31 25 20 15 16 15 10 17 17 11 11 8 12 17 23 25
22 31 53 37 55 61 64 63 59 63 58 60 72 73 76 81 83 87 88 88 83 75 64 59 53 44 34 30 24 24 21 23 18 12 19 19 9 15 7 9 15 18 20 24
16 40 34 50 56 58 55 65 60 56 63 73 71 75 77 80 85 87 89 85 71 65 66 56 45 37 26 20 23 24 25 21 16 17 16 11 6 14 15 13 21 18 18 16
25 39 45 52 54 55 60 59 54 56 69 69 73 71 76 81 84 85 82 69 67 67 58 33 30 30 21 17 18 23 26 23 15 17 19 9 13 15 22 24 25 20 20 16
31 39 48 49 47 55 58 63 60 59 75 64 70 72 76 80 84 81 69 62 57 42 43 41 23 22 8 2 15 25 27 17 30 22 15 15 16 20 25 36 38 37 24 20
37 40 47 49 54 56 60 57 66 63 71 71 68 72 77 80 79 69 60 51 44 38 35 29 25 14 5 13 11 18 19 24 24 24 19 19 23 26 34 38 38 40 41 40
40 46 51 54 52 59 54 61 60 66 69 67 68 72 74 71 64 59 53 41 46 44 34 28 25 18 11 15 17 18 17 20 19 21 25 24 29 37 39 41 49 54 60 76
41 47 53 43 50 49 45 58 57 63 63 62 65 69 67 61 57 55 49 36 36 37 38 37 39 28 14 14 19 20 20 21 25 26 25 30 35 44 51 60 73 81 83 85
37 45 35 42 52 44 46 59 55 60 58 59 61 66 60 54 54 52 43 42 39 41 40 31 18 18 18 17 18 20 23 24 26 31 36 39 44 52 63 77 81 91 83 70
43 46 41 38 42 41 49 50 56 60 57 53 58 58 51 47 45 42 38 48 51 50 39 33 32 30 28 23 24 24 28 31 34 41 43 48 51 61 75 80 86 83 77 70
43 48 37 38 41 45 57 56 48 58 52 48 51 48 47 44 39 35 34 41 40 41 34 30 34 34 30 25 27 38 40 40 48 61 53 46 47 61 71 76 80 76 77 66
41 49 38 40 36 38 47 45 44 52 48 48 40 42 40 38 31 31 35 38 37 32 28 24 28 27 26 23 25 32 43 53 65 60 56 52 49 59 71 78 79 73 77 69
41 49 37 33 30 33 48 41 47 49 42 45 33 35 36 34 27 24 31 31 31 28 25 27 29 27 27 23 30 32 36 47 61 53 49 43 46 64 76 79 77 69 67 52
47 48 35 28 29 29 47 43 45 41 41 34 31 30 32 26 27 27 25 28 27 26 22 27 27 26 28 28 29 29 37 43 52 47 47 45 47 69 76 79 79 62 56 55
46 45 34 22 23 34 45 44 38 36 38 34 28 24 24 24 20 19 20 19 20 20 23 24 23 24 25 27 28 31 32 40 40 42 48 54 61 61 68 74 77 62 57 64
39 38 25 21 19 32 38 39 39 37 42 34 28 23 23 20 20 19 16 15 16 19 22 22 21 22 23 23 24 26 30 32 33 33 34 36 47 57 56 69 79 72 69 64
44 20 18 19 12 27 47 34 36 38 37 27 25 20 21 20 18 16 17 15 17 21 23 21 21 20 21 22 26 30 34 34 32 32 30 33 38 47 46 58 74 71 66 67
8 17 9 14 11 26 47 32 34 37 33 28 23 22 19 18 20 21 21 21 23 24 24 24 22 22 23 24 27 33 35 38 40 42 42 33 30 37 45 55 63 71 68 53
Wind_Direction_850mb
296 301 294 301 307 310 337 323 325 329 321 334 349 340 334 337 335 329 320 317 315 314 317 316 315 320 317 310 308 299 293 291 289 291 291 290 290 289 284 280 274 282 276 264
296 295 309 303 310 341 330 311 300 337 321 357 340 337 335 335 330 320 314 313 308 312 317 315 310 309 309 306 304 301 296 293 290 289 291 292 294 291 285 279 277 280 279 271
296 303 308 304 346 321 333 340 354 326 339 352 336 325 323 327 322 312 312 314 315 314 310 308 306 302 300 298 299 294 291 292 290 289 286 294 291 287 288 279 282 280 283 271
301 306 300 40 30 4 332 321 322 355 346 316 317 323 321 319 313 316 311 309 308 307 306 306 305 302 300 295 291 287 287 287 288 287 289 288 285 283 284 285 289 288 282 268
292 304 293 2 16 334 332 309 30 335 333 325 322 315 311 321 323 311 307 305 305 304 303 302 300 299 297 292 288 287 288 284 281 282 284 279 273 286 281 294 281 281 276 272
281 284 306 5 352 332 306 292 348 333 325 322 321 310 316 326 323 319 313 308 307 304 303 302 300 299 294 292 288 288 288 285 283 281 273 268 270 272 281 268 279 279 263 272
312 308 295 36 345 352 359 311 319 320 317 321 315 314 312 321 318 314 310 306 307 304 303 299 299 297 293 291 288 288 290 287 275 269 266 268 270 278 289 287 287 282 253 233
313 304 308 348 356 357 303 309 317 321 322 314 317 318 319 319 316 316 311 310 308 307 306 305 302 298 295 292 290 291 285 275 270 254 264 264 265 293 269 278 282 248 199 195
291 282 304 335 333 331 326 320 318 317 316 324 323 322 321 318 318 316 314 310 313 311 308 308 304 296 292 290 293 290 278 271 248 274 274 271 279 223 258 241 217 186 179 180
317 318 329 331 326 324 319 316 315 320 328 331 324 324 321 320 317 316 319 317 317 315 313 313 314 310 301 298 289 271 266 251 262 268 263 281 193 225 232 181 164 171 173 178
304 328 328 326 324 317 316 321 329 332 337 333 328 324 322 318 318 320 321 322 321 317 316 315 320 314 308 305 283 248 241 246 227 269 288 189 197 193 212 156 174 185 181 192
307 327 324 318 321 313 326 332 331 338 338 332 331 327 326 321 325 324 323 326 328 328 325 322 323 316 294 295 261 235 223 228 225 228 237 232 234 187 168 157 164 162 182 193
322 323 332 321 329 333 332 332 336 337 337 330 332 333 332 329 329 330 330 334 336 334 338 324 325 325 304 285 248 217 201 192 195 206 203 223 198 181 158 144 136 137 139 150
321 327 320 326 330 346 339 336 332 330 337 333 336 338 337 332 332 336 339 345 347 351 352 350 312 318 315 263 184 188 173 168 182 186 189 207 190 172 159 151 141 134 136 142
325 322 319 334 341 339 335 342 337 335 338 338 340 340 340 336 337 343 352 359 3 3 356 355 15 7 97 153 142 145 171 187 187 199 190 190 174 168 160 153 146 134 135 140
328 325 335 338 341 336 340 342 339 336 336 338 341 341 341 338 343 352 1 6 13 15 11 13 20 21 62 137 162 174 171 186 188 175 172 169 166 159 153 138 130 132 140 143
327 335 341 348 338 334 342 345 341 339 340 343 341 340 341 344 348 2 12 28 35 24 25 38 44 52 62 98 140 147 154 158 164 166 159 161 152 144 138 132 133 131 130 135
332 337 342 341 338 336 340 342 339 342 341 342 341 343 343 349 349 359 11 32 38 44 40 35 34 38 59 104 134 144 143 150 157 153 150 147 144 141 134 130 133 137 133 130
331 332 341 348 347 339 340 333 337 336 340 341 342 345 346 351 350 2 18 31 33 37 39 41 44 49 66 90 110 125 132 138 143 144 136 139 143 141 136 136 137 137 138 135
331 330 338 348 345 343 339 330 339 336 345 349 340 349 352 354 354 7 27 36 31 29 32 37 45 54 65 88 105 121 123 134 130 128 126 131 140 145 141 140 139 138 140 131
336 332 350 350 348 339 342 339 341 342 347 341 352 354 353 359 359 10 22 29 32 29 31 43 52 56 68 96 123 124 127 133 138 134 137 136 137 149 148 145 142 142 134 127
333 333 343 346 342 340 346 351 340 345 343 346 353 354 360 7 14 22 23 22 27 31 46 53 54 60 76 100 107 126 134 137 145 145 141 136 141 151 151 150 144 137 143 125
326 327 337 339 342 349 350 353 345 352 352 359 359 360 0 9 13 20 24 27 30 37 54 60 57 64 80 101 110 116 127 136 144 148 144 137 141 151 151 158 155 138 144 138
318 323 329 339 340 348 357 358 354 360 359 5 1 360 -0 16 24 25 22 25 38 48 61 66 68 79 88 104 115 123 135 144 149 149 150 147 140 150 158 159 155 145 142 141
316 316 335 346 354 356 359 358 352 349 359 357 3 8 15 25 31 27 32 37 46 61 69 72 79 86 92 106 119 126 131 145 149 152 155 158 157 156 157 166 162 155 147 144
298 321 331 346 324 3 1 353 356 354 348 4 8 22 28 39 45 44 54 67 77 76 73 73 79 88 95 105 116 129 138 140 141 139 144 145 152 163 164 166 167 160 154 151
292 337 349 20 7 356 7 3 8 18 26 22 20 31 38 52 56 61 68 78 84 86 85 85 86 92 99 107 116 126 138 138 129 120 115 115 127 148 154 160 168 162 153 146